User: anonymous   Login
Location: Kosice
(0.0000°N, 21.2500°E)
Time: 10:13:03
(UTC+02:00)
Language:

CCE 1 Rocket - Orbit

View from above orbital plane
View from above orbital plane
View from above satellite
View from above satellite

Ground track
Ground track

The orbit data is extracted from the following two-line orbital elements,

1 15202U 84088D   21102.33196146  .00000050  00000-0 -15740-4 0  9994
2 15202  28.9229 349.8853 1990541 255.3418  81.9266 10.80747306445057
Epoch (UTC): 12 April 2021 07:58:01
Eccentricity: 0.1990541
inclination: 28.9229°
perigee height: 543 km
apogee height: 3983 km
right ascension of ascending node: 349.8853°
argument of perigee: 255.3418°
revolutions per day: 10.80747306
mean anomaly at epoch: 81.9266°
orbit number at epoch: 44505

The dashed part of the orbit path shows where the satellite is in the earth's shadow,  

DLR